User: anonymous   Login
Location: Peebles
(55.6412°N, 3.1714°W)
Time: 15:09:43
(UTC+01:00)
Language:

SPACEBEE-17 - Orbit

View from above orbital plane
View from above orbital plane
View from above satellite
View from above satellite

Ground track
Ground track

The orbit data is extracted from the following two-line orbital elements,

1 46306U 20061AL  22184.16444709  .00013230  00000-0  61251-3 0  9997
2 46306  97.4505 256.3301 0003037 124.2204 235.9319 15.20238020100971
Epoch (UTC): 03 July 2022 03:56:48
Eccentricity: 0.0003037
inclination: 97.4505°
perigee height: 503 km
apogee height: 507 km
right ascension of ascending node: 256.3301°
argument of perigee: 124.2204°
revolutions per day: 15.20238020
mean anomaly at epoch: 235.9319°
orbit number at epoch: 10097

The dashed part of the orbit path shows where the satellite is in the earth's shadow,  

DLR